Overview Statistics Trail Chart Weather Telemetry Raw packets
 

This is the latest recevied weather packets stored in our database for station/object K1RFS. If no packets are shown the sender has not sent any weather packets the latest 10 day(s).

<< 34 35 36 37 38 39 40 >>
Time Temp. Humidity Pressure Rain* Wind** Luminosity Snow
1788458713 26.11° C 16% 1000.6 hPa 0 mm - 537 W/m² -
1788458412 25.56° C 15% 1000.7 hPa 0 mm - 529 W/m² -
1788458111 25.56° C 16% 1000.7 hPa 0 mm - 354 W/m² -
1788457810 25.56° C 15% 1000.5 hPa 0 mm - 35 W/m² -
1788457506 25.56° C 15% 1000.6 hPa 0 mm - 33 W/m² -
1788457200 25.56° C 16% 1000.8 hPa 0 mm - 33 W/m² -
1788456895 25° C 15% 1000.7 hPa 0 mm - 33 W/m² -
1788456591 25° C 16% 1000.8 hPa 0 mm - 33 W/m² -
1788456286 25° C 16% 1000.8 hPa 0 mm - 33 W/m² -
1788455981 24.44° C 16% 1000.8 hPa 0 mm - 32 W/m² -
1788455676 24.44° C 16% 1000.7 hPa 0 mm - 32 W/m² -
1788455376 24.44° C 16% 1000.7 hPa 0 mm - 32 W/m² -
1788455071 24.44° C 16% 1000.8 hPa 0 mm - 31 W/m² -
1788454770 24.44° C 16% 1000.8 hPa 0 mm - 31 W/m² -
1788454464 23.89° C 17% 1000.8 hPa 0 mm - 31 W/m² -
1788454164 23.89° C 17% 1000.9 hPa 0 mm - 31 W/m² -
1788453859 23.89° C 17% 1000.7 hPa 0 mm - 30 W/m² -
1788453559 23.89° C 17% 1000.7 hPa 0 mm - 30 W/m² -
1788453256 23.33° C 17% 1000.7 hPa 0 mm - 30 W/m² -
1788452951 23.33° C 18% 1000.8 hPa 0 mm - 30 W/m² -
1788452648 23.33° C 18% 1000.7 hPa 0 mm - 30 W/m² -
1788452343 22.78° C 18% 1000.7 hPa 0 mm - 30 W/m² -
1788452038 22.78° C 19% 1000.5 hPa 0 mm - 30 W/m² -
1788451734 22.78° C 18% 1000.7 hPa 0 mm - 30 W/m² -
1788451433 22.78° C 18% 1000.6 hPa 0 mm - 30 W/m² -

* Rain latest hour (hover to see other rain measurements)
** Current wind speed in m/s (hover to see current wind gust speed)